ZK-1A R/B

Last updated on Fri Jan 09 2026 00:02:07 GMT+0000 (Coordinated Universal Time)

1 67002U 25292K 26008.23155767 .00178555 11171-4 72764-3 0 9992 2 67002 97.7161 88.2985 0189183 267.8171 90.1415 15.63907211 4526
UTC large
Height (km)
Speed (km/s)
/
Latitude / Longitude
Inclination (degrees)
Orbital Period (minutes)
Azimuth
Elevation
Range (km)
Doppler Factor

Next 0 passes for location: London (51.5072 / 0.1276)

Sorry there are no passes over London.